www.pogodaiklimat.ru

Погода и климат >> Архив погоды >> Украина >> Полтава


АРХИВ ПОГОДЫ в Полтаве

Время (UTC), дата Ветер
(напр.,м/с)
 
Видим.   Явления Облачность Т
(С)
Тd
(С)
f
(%)
Тe
(С)
Тes
(С)
Комфортность P
(гПа)
Po
(гПа)
Тmin
(С)
Tmax
(С)
R
(мм)
R24
(мм)
S
(см)
15 9.07 З 4 10 км 3/3 1000 м
[Cu hum Ci fib]
+21.0 +2.2 29 +21 +23 комфорт 1007.5 989.0
18 9.07 ЮЗ 1 10 км 9/5 600 м
[Cb cap Ac trans Ci fib]
+18.0 +6.6 47 +19 +19 прохладно 1007.8 989.2 +22.1
21 9.07 Ю 1 10 км 9/0
[Ac trans Ci fib]
+15.0 +8.7 66 +16 +16 прохладно 1007.7 988.9
00 10.07 З 1 10 км зарница {ливн. осадки} 8/8 600 м
[Cb cap]
+12.4 +10.7 89 +12 +12 прохладно 1006.7 987.7
03 10.07 З 1 10 км 3/0
[Ac trans]
+12.8 +9.0 78 +13 +14 холодно 1006.5 987.6
06 10.07 З 2 10 км 1/0
[Ac trans]
+16.8 +9.4 62 +17 +25 прохладно 1006.5 987.8 +12.3 0.9
09 10.07 З 4 10 км 9/9 1000 м
[Cu med, cong]
+19.9 +8.2 47 +21 +22 комфорт 1005.3 986.8
12 10.07 ЮЗ 3 10 км 9/9 600 м
[Cb calv]
+20.8 +7.2 41 +22 +23 комфорт 1004.6 986.2
15 10.07 З 3 10 км 9/9 600 м
[Cb calv Ac trans]
+19.8 +8.1 47 +21 +21 комфорт 1004.7 986.2
18 10.07 штиль 0 10 км 3/0
[Ac As]
+17.0 +9.4 61 +17 +17 холодно 1005.6 986.9 +22.7
21 10.07 штиль 0 10 км 3/0
[Ac As]
+13.4 +10.7 84 +13 +13 холодно 1005.4 986.5
00 11.07 З 1 10 км 3/0
[Ac As]
+13.6 +10.1 79 +14 +14 прохладно 1005.3 986.4
03 11.07 З 1 10 км 8/0
[Ac As Ci]
+12.2 +10.3 88 +12 +13 холодно 1005.1 986.1
06 11.07 З 1 10 км 3/1 1000 м
[Cu hum Ac As Ci fib]
+17.6 +10.5 63 +19 +27 по сезону 1005.1 986.5 +11.8
09 11.07 З 2 10 км 8/8 600 м
[Cu med, cong]
+20.4 +9.2 49 +22 +26 комфорт 1004.6 986.2
12 11.07 СЗ 3 10 км 8/8 600 м
[Cu med, cong]
+21.9 +7.0 38 +23 +25 комфорт 1004.2 985.9
15 11.07 СЗ 2 10 км 6/6 600 м
[Sc diur, vesp]
+21.8 +8.4 42 +23 +24 комфорт 1004.5 986.2
18 11.07 З 2 10 км 4/4 600 м
[Cb cap]
+18.6 +9.1 54 +20 +20 по сезону 1005.8 987.2 +23.0
21 11.07 З 2 10 км 3/0
[Ac trans]
+14.6 +10.4 76 +14 +14 холодно 1006.6 987.8
00 12.07 З 2 10 км 3/0
[Ac trans]
+13.0 +9.9 81 +12 +12 холодно 1006.7 987.8
03 12.07 штиль 0 10 км 1/0
[Ac trans]
+12.6 +10.3 86 +12 +13 холодно 1007.3 988.3
06 12.07 З 1 10 км 1/0
[Ac trans]
+17.6 +11.8 69 +19 +28 прохладно 1007.5 988.9 +11.9
09 12.07 З 1 10 км 9/9 1000 м
[Cu hum]
+20.0 +10.0 53 +22 +24 комфорт 1007.4 988.9
12 12.07 С 2 10 км {ливн. осадки} 9/9 600 м
[Cb calv Ci fib]
+22.4 +9.5 44 +24 +25 комфорт 1006.4 988.1
15 12.07 СЗ 2 10 км 9/8 600 м
[Cb calv Ac trans Ci fib]
+23.0 +8.9 41 +24 +25 комфорт 1006.2 987.9
18 12.07 СЗ 2 10 км 8/5 600 м
[Cb calv Cs]
+17.8 +10.3 61 +18 +18 прохладно 1007.7 989.1 +23.6 0.0
21 12.07 штиль 0 10 км 6/0
[Ci fib]
+14.7 +11.5 81 +14 +14 холодно 1007.9 989.1
00 13.07 штиль 0 10 км ясно +13.3 +11.0 86 +13 +13 прохладно 1008.0 989.1
03 13.07 СЗ 1 10 км ясно +12.6 +10.9 89 +13 +13 холодно 1008.5 989.5
06 13.07 З 1 10 км 1/0
[Ac trans]
+17.6 +12.2 71 +19 +28 прохладно 1008.7 990.0 +11.1
09 13.07 С 1 10 км 9/9 1000 м
[Cu med, cong]
+21.6 +10.1 48 +23 +25 комфорт 1008.6 990.2
12 13.07 С 3 10 км 9/8 600 м
[Cu Sc Ac trans]
+22.5 +9.6 44 +24 +26 комфорт 1008.2 989.8
15 13.07 С 3 10 км 6/6 600 м
[Cu Sc]
+22.6 +8.6 41 +24 +25 комфорт 1008.4 990.0
18 13.07 штиль 0 10 км 5/3 600 м
[Sc Ac trans]
+17.8 +12.4 71 +18 +18 прохладно 1009.5 990.8 +24.1
21 13.07 штиль 0 10 км ясно +14.4 +12.6 89 +14 +14 холодно 1010.0 991.1
00 14.07 С 1 4000 м дымка ясно +11.2 +10.4 95 +11 +11 холодно 1010.2 991.1
03 14.07 штиль 0 10 км 3/0
[Ci fib]
+12.2 +10.7 91 +12 +12 очень
холодно
1010.2 991.2
06 14.07 В 1 10 км 3/0
[Ci]
+19.2 +12.0 63 +21 +31 комфорт 1010.0 991.4 +10.6
09 14.07 З 1 10 км 6/6 1000 м
[Cu hum]
+21.6 +9.3 45 +23 +31 комфорт 1009.6 991.2
12 14.07 С 3 10 км 6/4 1000 м
[Cu hum Ci fib]
+23.2 +8.9 40 +25 +31 комфорт 1008.6 990.3
15 14.07 СЗ 1 10 км 4/3 1000 м
[Cu hum Ci fib]
+24.4 +7.9 35 +25 +27 комфорт 1008.2 989.9
18 14.07 С 1 10 км 8/1 1000 м
[Sc Ci fib]
+20.1 +11.2 57 +23 +23 комфорт 1008.9 990.4 +25.6
21 14.07 штиль 0 10 км 3/0
[Ac trans]
+16.9 +10.1 64 +17 +17 прохладно 1009.2 990.5
00 15.07 С 1 10 км 6/0
[Ac trans Ci fib]
+15.1 +10.4 73 +16 +16 по сезону 1008.6 989.8
03 15.07 С 1 10 км 3/0
[Ac trans]
+13.4 +9.7 78 +14 +14 холодно 1008.6 989.7
06 15.07 С 1 10 км 3/0
[Cc]
+20.4 +12.2 59 +23 +33 комфорт 1008.2 989.7 +13.1
09 15.07 В 1 10 км 3/3 1000 м
[Cu hum]
+25.3 +9.0 36 +26 +40 жарко 1007.4 989.2
12 15.07 ЮВ 1 10 км 8/8 1000 м
[Cu med, cong Ci fib]
+26.7 +7.5 30 +27 +30 жарко 1006.7 988.6
15 15.07 СЗ 1 10 км 8/6 1000 м
[Cu med, cong Cs]
+27.0 +9.3 33 +27 +29 жарко 1006.3 988.2
18 15.07 С 2 10 км 9/8 600 м
[Cb cap Cc]
+22.5 +11.9 51 +25 +25 комфорт 1007.0 988.7 +27.6
21 15.07 С 1 10 км 9/3 600 м
[Cb calv Cc]
+17.9 +13.1 73 +19 +19 по сезону 1007.6 989.0
00 16.07 В 1 10 км 9/3 600 м
[Sc Cs]
+15.0 +11.9 82 +16 +16 по сезону 1007.0 988.2
03 16.07 СВ 1 10 км 9/8 600 м
[Cb cap Cs]
+14.6 +12.4 87 +15 +15 прохладно 1007.5 988.7
06 16.07 С 1 10 км 8/4 600 м
[Cb cap Ac As]
+18.3 +13.4 73 +20 +23 по сезону 1007.2 988.6 +14.1
09 16.07 СВ 1 10 км 9/4 600 м
[Cu Sc Ac trans Cc]
+22.8 +11.9 50 +25 +32 комфорт 1006.7 988.4
12 16.07 З 1 10 км гроза без осадков 9/3 600 м
[Cb calv Ac trans Cc]
+24.3 +12.5 48 +26 +32 жарко 1005.8 987.6

 

Местоположение метеостанции Полтава (Полтавская область, Украина): широта 49.60 долгота 34.55 высота над уровнем моря 160 м.

В архиве по умолчанию представлена погода в Полтаве за последнюю неделю. Архивные данные за месяц целиком и за предыдущие месяцы, начиная с января 2011 года, Вы можете получить, выбрав интересующий диапазон дат из раскрывающегося списка и нажав кнопку "Ввод!".


*Определитесь, кто Вы:
робот инопланетянин человек

Внимание! Время в таблицах - всемирное. Для получения местного времени необходимо прибавить поправку, которая равна 2 ч.

Смотрите также архив погоды в соседних городах и на ближайших метеорологических станциях:

Погода в Кобеляках (Полтавская область, Украина) (56 км)
Погода в Коломаке (Харьковская область, Украина) (56 км)
Погода в Краснограде (Харьковская область, Украина) (69 км)
Погода в Веселом Подоле (Полтавская область, Украина) (92 км)
Погода в Гадяче (Полтавская область, Украина) (95 км)
Погода в Боходухове (Харьковская область, Украина) (97 км)
Погода в Губинихе (Днепропетровская область, Украина) (102 км)
Погода в Лебедине (Сумская область, Украина) (109 км)
Погода в Светловодске (Кировоградская область, Украина) (112 км)
Погода в Днепре (Днепропетровская область, Украина) (115 км)

Пояснения к столбцам:

Ветер - указаны скорость ветра в м/с - средняя за 10 мин, порывы в срок и между сроками (в фигурных скобках) и направление, откуда дует ветер: С - северный, СВ - северо-восточный, В - восточный, ЮВ - юго-восточный, Ю - южный, ЮЗ - юго-западный, З - западный, СЗ - северо-западный.
Видимость - горизонтальная дальность видимости в метрах или километрах. При видимости от 1 до 10 км при отсутствии осадков обычно наблюдается дымка, при ухудшении видимости до 1 км и менее - туман. В сухую погоду видимость может ухудшаться дымом, пылью или мглою.
Явления - указаны атмосферные явления, наблюдавшиеся в срок или в последний час перед сроком; фигурными скобками обозначены явления, наблюдавшиеся между сроками (за 1-3 часа до срока); квадратными скобками обозначены град или гололедные отложения с указанием их диаметра в мм.
Облачность - указаны через наклонную черту общая и нижняя облачность в баллах и высота нижней границы облаков в метрах; квадратными скобками обозначены формы облаков: Ci - перистые, Cs - перисто-слоистые, Cc - перисто-кучевые, Ac - высококучевые, As - высокослоистые, Sc - слоисто-кучевые, Ns - слоисто-дождевые, Cu - кучевые, Cb - кучево-дождевые. Подробнее классификацию облаков см. в Атласе облаков (PDF).
T - Температура воздуха - температура, измеренная на высоте 2 м над землей.
Td - Температура точки росы - температура, при понижении до которой содержащийся в воздухе водяной пар достигнет насыщения.
f - Относительная влажность воздуха - влажноcть воздуха, измеренная на высоте 2 м над землей.
Te - Эффективная температура - температура, которую ощущает одетый по сезону человек в тени. Характеристика душности погоды. При расчете учитывается влияние влажности воздуха и скорости ветра на теплоощущения человека.
Tes - Эффективная температура на солнце - температура, которую ощущает человек, с поправкой на солнечный нагрев. Характеристика знойности погоды. Зависит от высоты солнца над горизонтом, облачности и скорости ветра. Ночью, в пасмурную погоду, а также при ветре 12 м/с и более поправка равна нулю.
P - Атмосферное давление - приведенное к уровню моря атмосферное давление.
Po - Атмосферное давление - измеренное на уровне метеостанции атмосферное давление.
Tmin - Минимальная температура - минимум температуры воздуха на высоте 2 м над землей.
Tmax - Максимальная температура - максимум температуры воздуха на высоте 2 м над землей.
R - Количество осадков - Количество выпавших осадков за период времени, мм. При наведении курсора мыши на число - период времени, за который выпало указанное количество осадков.
R24 - Количество осадков - Количество выпавших осадков за 24 часа, мм.
S - Снежный покров - Высота снежного покрова, см. При наведении курсора мыши на число - состояние снежного покрова и степень покрытия местности в баллах.